FW5165 Weather Reports


Display with metric or nautical units.
time (UTC)temp
F
wind
direction
speed
MPH
gust
MPH
rain 1hr
in
rain 24hr
in
rain mn
in
humidity
%
barometer
mb
20260503210051 61 178 6.0 15.0 0.00 0.00 0.00 70 1013.7
20260503205551 61 178 9.0 15.0 0.00 0.00 0.00 70 1013.7
20260503205053 61 190 8.0 16.0 0.00 0.00 0.00 70 1013.7
20260503204554 62 198 9.0 18.0 0.00 0.00 0.00 70 1013.7
20260503204050 62 184 10.0 18.0 0.00 0.00 0.00 69 1013.6
20260503203554 62 211 7.0 19.0 0.00 0.00 0.00 70 1013.6
20260503203050 62 193 11.0 19.0 0.00 0.00 0.00 69 1013.5
20260503202550 62 197 9.0 13.0 0.00 0.00 0.00 68 1013.6
20260503202053 62 192 8.0 16.0 0.00 0.00 0.00 69 1013.4
20260503201549 62 186 9.0 15.0 0.00 0.00 0.00 70 1013.5
20260503201051 62 199 9.0 16.0 0.00 0.00 0.00 69 1013.5
20260503200548 63 150 8.0 16.0 0.00 0.00 0.00 69 1013.4
20260503200047 62 136 9.0 15.0 0.00 0.00 0.00 71 1013.5
20260503195546 62 147 8.0 15.0 0.00 0.00 0.00 70 1013.6
20260503195046 62 188 10.0 15.0 0.00 0.00 0.00 71 1013.6
20260503194547 62 193 8.0 15.0 0.00 0.00 0.00 71 1013.7
20260503194044 61 150 7.0 15.0 0.00 0.00 0.00 73 1013.7
20260503193543 60 154 8.0 13.0 0.00 0.00 0.00 75 1013.7
20260503193042 59 202 6.0 14.0 0.00 0.00 0.00 74 1013.7
20260503192541 59 194 9.0 14.0 0.00 0.00 0.00 76 1013.9
20260503192041 58 175 7.0 14.0 0.00 0.00 0.00 76 1013.9
20260503191541 58 174 8.0 14.0 0.00 0.00 0.00 75 1013.9
20260503191041 59 180 8.0 19.0 0.00 0.00 0.00 75 1013.9
20260503190540 59 202 10.0 22.0 0.00 0.00 0.00 76 1013.9
20260503190040 59 203 10.0 22.0 0.00 0.00 0.00 77 1013.9
20260503185540 59 192 11.0 18.0 0.00 0.00 0.00 75 1014.0
20260503185040 59 185 9.0 13.0 0.00 0.00 0.00 76 1014.0
20260503184557 59 194 9.0 15.0 0.00 0.00 0.00 77 1014.0
20260503184040 58 208 10.0 16.0 0.00 0.00 0.00 78 1014.0
20260503183540 58 200 11.0 16.0 0.00 0.00 0.00 76 1014.1
20260503183042 58 192 8.0 20.0 0.00 0.00 0.00 76 1014.0
20260503182539 59 197 11.0 20.0 0.00 0.00 0.00 76 1014.0
20260503182038 59 211 11.0 19.0 0.00 0.00 0.00 76 1014.0
20260503181537 59 165 11.0 16.0 0.00 0.00 0.00 76 1013.9
20260503181036 58 192 8.0 14.0 0.00 0.00 0.00 78 1014.1
20260503180536 57 185 9.0 18.0 0.00 0.00 0.00 79 1014.1
20260503180037 57 163 9.0 18.0 0.00 0.00 0.00 79 1014.1
20260503175534 57 148 9.0 16.0 0.00 0.00 0.00 81 1014.2
20260503175037 57 164 8.0 16.0 0.00 0.00 0.00 82 1014.1
20260503174534 56 148 8.0 13.0 0.00 0.00 0.00 83 1013.9
20260503174034 56 163 6.0 12.0 0.00 0.00 0.00 85 1013.9
20260503173536 55 160 5.0 14.0 0.00 0.00 0.00 84 1013.9
20260503173036 55 194 7.0 14.0 0.00 0.00 0.00 84 1013.8
20260503172535 55 150 6.0 10.0 0.00 0.00 0.00 83 1013.8
20260503172035 55 190 5.0 14.0 0.00 0.00 0.00 82 1013.4
20260503171542 55 148 6.0 14.0 0.00 0.00 0.00 81 1013.9
20260503171031 55 157 6.0 15.0 0.00 0.00 0.00 81 1014.0
20260503170531 55 146 8.0 16.0 0.00 0.00 0.00 81 1014.0
20260503150517 53 141 8.0 13.0 0.00 0.00 0.00 84 1012.6
20260503131003 53 155 6.0 9.0 0.00 0.00 0.00 83 1011.1
20260503130503 53 165 4.0 8.0 0.00 0.00 0.00 82 1011.1
20260503110552 53 160 6.0 9.0 0.00 0.00 0.00 89 1010.9
20260503081533 57 165 0.0 1.0 0.00 0.00 0.00 81 1011.6
20260503081030 57 165 0.0 1.0 0.00 0.00 0.00 81 1011.6
20260503080527 57 165 0.0 0.0 0.00 0.00 0.00 81 1011.7
20260503072525 57 157 0.0 4.0 0.00 0.00 0.00 82 1012.1
20260503072023 57 153 1.0 4.0 0.00 0.00 0.00 82 1012.1
20260503071522 58 152 1.0 4.0 0.00 0.00 0.00 81 1012.2
20260503071020 58 150 2.0 7.0 0.00 0.00 0.00 81 1012.2
20260503070519 58 147 4.0 7.0 0.00 0.00 0.00 81 1012.2
20260503055017 61 149 1.0 5.0 0.00 0.00 0.00 75 1012.3
20260503054523 61 148 0.0 2.0 0.00 0.00 0.00 75 1012.3
20260503054017 61 145 1.0 2.0 0.00 0.00 0.00 75 1012.4
20260503053518 62 146 0.0 2.0 0.00 0.00 0.00 74 1012.4
20260503053018 62 145 0.0 1.0 0.00 0.00 0.00 74 1012.4
20260503052517 62 145 0.0 4.0 0.00 0.00 0.00 73 1012.4
20260503052017 62 145 1.0 3.0 0.00 0.00 0.00 73 1012.5
20260503051515 62 150 0.0 2.0 0.00 0.00 0.00 73 1012.4
20260503051015 62 150 0.0 6.0 0.00 0.00 0.00 73 1012.5
20260503050515 62 149 0.0 6.0 0.00 0.00 0.00 72 1012.4
20260503050015 62 153 2.0 6.0 0.00 0.00 0.00 72 1012.4
20260503045515 62 153 3.0 6.0 0.00 0.00 0.00 72 1012.4
20260503045014 62 153 3.0 6.0 0.00 0.00 0.00 72 1012.3
20260503044533 62 157 4.0 7.0 0.00 0.00 0.00 72 1012.2
20260503044015 63 178 3.0 7.0 0.00 0.00 0.00 73 1012.2
20260503043514 63 154 3.0 7.0 0.00 0.00 0.00 72 1012.2
20260503043032 63 157 4.0 7.0 0.00 0.00 0.00 72 1012.1
20260503042514 63 157 4.0 7.0 0.00 0.00 0.00 72 1012.0
20260503042014 63 163 5.0 7.0 0.00 0.00 0.00 71 1012.0
20260503041514 64 161 3.0 6.0 0.00 0.00 0.00 71 1011.9
20260503041014 64 165 2.0 5.0 0.00 0.00 0.00 71 1011.9
20260503040513 64 154 1.0 7.0 0.00 0.00 0.00 70 1011.9
20260503040014 64 153 4.0 7.0 0.00 0.00 0.00 70 1011.8
20260503035513 65 173 4.0 6.0 0.00 0.00 0.00 69 1011.7
20260503035013 65 153 4.0 6.0 0.00 0.00 0.00 69 1011.6
20260503034513 65 148 4.0 5.0 0.00 0.00 0.00 70 1011.6
20260503034013 65 173 2.0 5.0 0.00 0.00 0.00 69 1011.5
20260503033517 65 176 3.0 5.0 0.00 0.00 0.00 69 1011.4
20260503033015 66 360 1.0 5.0 0.00 0.00 0.00 68 1011.3
20260503032512 66 202 2.0 7.0 0.00 0.00 0.00 68 1011.3
20260503032016 66 201 3.0 7.0 0.00 0.00 0.00 68 1011.3
20260503031519 66 360 3.0 6.0 0.00 0.00 0.00 67 1011.2
20260503031012 67 360 3.0 7.0 0.00 0.00 0.00 67 1011.2
20260503030511 67 360 5.0 7.0 0.00 0.00 0.00 66 1011.2
20260503030014 68 174 2.0 5.0 0.00 0.00 0.00 65 1011.2
20260503025512 68 197 2.0 5.0 0.00 0.00 0.00 65 1011.2
20260503025012 68 186 2.0 5.0 0.00 0.00 0.00 64 1011.1
20260503024511 68 186 2.0 5.0 0.00 0.00 0.00 64 1011.2
20260503024014 69 360 2.0 5.0 0.00 0.00 0.00 64 1011.0
20260503023511 69 182 1.0 6.0 0.00 0.00 0.00 64 1011.1
20260503023011 69 168 4.0 6.0 0.00 0.00 0.00 64 1011.0
20260503022513 69 161 2.0 5.0 0.00 0.00 0.00 65 1011.0
20260503022013 70 71 1.0 5.0 0.00 0.00 0.00 64 1010.9
20260503021509 70 182 1.0 6.0 0.00 0.00 0.00 64 1011.0
20260503021009 70 188 3.0 6.0 0.00 0.00 0.00 63 1011.0
20260503020513 70 184 4.0 5.0 0.00 0.00 0.00 63 1010.9
20260503020009 70 157 1.0 5.0 0.00 0.00 0.00 64 1011.0
20260503015508 70 202 3.0 5.0 0.00 0.00 0.00 63 1011.0
20260503015008 70 187 3.0 6.0 0.00 0.00 0.00 62 1011.0
20260503014509 71 211 3.0 6.0 0.00 0.00 0.00 62 1010.9
20260503014009 71 180 3.0 7.0 0.00 0.00 0.00 62 1010.9
20260503013508 71 185 3.0 7.0 0.00 0.00 0.00 62 1011.0
20260503013012 71 234 3.0 7.0 0.00 0.00 0.00 60 1011.0
20260503012508 71 229 4.0 5.0 0.00 0.00 0.00 60 1011.0
20260503012007 72 183 2.0 5.0 0.00 0.00 0.00 59 1011.1
20260503011507 72 169 3.0 6.0 0.00 0.00 0.00 59 1011.1
20260503011006 72 181 3.0 6.0 0.00 0.00 0.00 59 1011.1
20260503010506 72 184 2.0 6.0 0.00 0.00 0.00 59 1011.1
20260503010006 72 184 3.0 6.0 0.00 0.00 0.00 59 1011.1
20260503005506 72 191 3.0 6.0 0.00 0.00 0.00 58 1011.1
20260503005006 72 208 3.0 7.0 0.00 0.00 0.00 58 1011.1
20260503004506 71 188 5.0 9.0 0.00 0.00 0.00 58 1011.1
20260503004009 72 201 6.0 9.0 0.00 0.00 0.00 58 1011.1
20260503003505 72 170 4.0 9.0 0.00 0.00 0.00 57 1011.1
20260503003005 72 203 5.0 9.0 0.00 0.00 0.00 58 1011.1
20260503002505 72 227 5.0 8.0 0.00 0.00 0.00 59 1011.2
20260503002003 72 236 2.0 7.0 0.00 0.00 0.00 60 1011.2
20260503001502 72 287 3.0 6.0 0.00 0.00 0.00 59 1011.2
20260503001002 72 214 2.0 6.0 0.00 0.00 0.00 58 1011.3
20260503000505 72 230 2.0 7.0 0.00 0.00 0.00 58 1011.3
20260503000002 72 186 2.0 6.0 0.00 0.00 0.00 56 1011.2
20260502235501 73 157 2.0 6.0 0.00 0.00 0.00 56 1011.2
20260502235001 72 249 2.0 7.0 0.00 0.00 0.00 58 1011.3
20260502234502 72 233 2.0 7.0 0.00 0.00 0.00 56 1011.2
20260502234002 73 221 3.0 6.0 0.00 0.00 0.00 56 1011.2
20260502233601 72 261 1.0 6.0 0.00 0.00 0.00 56 1011.3
20260502233100 72 226 2.0 6.0 0.00 0.00 0.00 58 1011.3
20260502232559 72 282 1.0 8.0 0.00 0.00 0.00 57 1011.3
20260502232103 72 238 5.0 8.0 0.00 0.00 0.00 57 1011.4
20260502231600 72 225 0.0 7.0 0.00 0.00 0.00 57 1011.4
20260502231104 72 224 3.0 7.0 0.00 0.00 0.00 57 1011.5
20260502230558 72 261 3.0 7.0 0.00 0.00 0.00 57 1011.5
20260502230057 72 246 5.0 6.0 0.00 0.00 0.00 55 1011.7
20260502225557 72 249 1.0 5.0 0.00 0.00 0.00 58 1011.7
20260502225055 71 265 3.0 7.0 0.00 0.00 0.00 56 1011.8
20260502224555 72 246 5.0 8.0 0.00 0.00 0.00 55 1011.9
20260502224056 72 222 0.0 5.0 0.00 0.00 0.00 57 1012.0
20260502223554 72 240 3.0 6.0 0.00 0.00 0.00 57 1012.1
20260502223054 71 215 3.0 8.0 0.00 0.00 0.00 57 1012.2
20260502222554 71 224 4.0 10.0 0.00 0.00 0.00 57 1012.2
20260502222053 71 220 7.0 10.0 0.00 0.00 0.00 57 1012.3
20260502221608 71 292 3.0 9.0 0.00 0.00 0.00 59 1012.4
20260502221052 71 213 3.0 8.0 0.00 0.00 0.00 59 1012.4
20260502220551 71 277 3.0 8.0 0.00 0.00 0.00 60 1012.6
20260502220059 70 256 4.0 10.0 0.00 0.00 0.00 60 1012.7
20260502215551 70 238 6.0 10.0 0.00 0.00 0.00 59 1012.7
20260502215050 70 244 4.0 9.0 0.00 0.00 0.00 61 1012.7
20260502214550 70 212 6.0 9.0 0.00 0.00 0.00 59 1012.8
20260502214050 70 269 4.0 8.0 0.00 0.00 0.00 58 1012.8
20260502213555 70 252 5.0 7.0 0.00 0.00 0.00 58 1012.9
20260502213050 70 235 4.0 10.0 0.00 0.00 0.00 57 1012.9
20260502212550 70 178 3.0 10.0 0.00 0.00 0.00 56 1013.0
20260502212050 71 210 7.0 10.0 0.00 0.00 0.00 56 1013.0
20260502211549 70 234 5.0 9.0 0.00 0.00 0.00 57 1013.1
20260502211047 70 257 6.0 9.0 0.00 0.00 0.00 56 1013.2
20260502210547 70 186 4.0 10.0 0.00 0.00 0.00 56 1013.1